Data for 09/09/2017

Time Sea-Level Adjusted Pressure Absolute Pressure Temperature Relative Humidity Dew Point   
(mb) (inHg) (mb) (inHg) (C) (F) (%) (C) (F)
00:05 1020 30.12 849 25.07 19.4 66.8 38 4.6 40.4
00:10 1020 30.12 849 25.07 18.9 66.1 39 4.9 40.9
00:15 1020 30.12 849 25.07 18.4 65.1 42 5.2 41.4
00:20 1020 30.12 849 25.07 17.9 64.2 43 5.4 41.7
00:25 1020 30.12 849 25.07 17.4 63.2 42 4.5 40.1
00:30 1020 30.12 849 25.07 17.3 63.1 45 5.2 41.4
00:35 1020 30.12 849 25.07 17.1 62.7 44 4.8 40.6
00:40 1020 30.12 849 25.07 17.1 62.7 44 4.7 40.4
00:45 1020 30.12 849 25.07 17.4 63.3 43 4.9 40.9
00:50 1020 30.12 849 25.07 17.3 63.1 42 4.5 40.1
00:55 1020 30.12 849 25.07 17.2 63 43 4.5 40.1
01:00 1020 30.12 849 25.07 17.2 63 42 4.4 39.9
01:05 1020 30.12 849 25.07 17.2 63 43 4.7 40.4
01:10 1020 30.12 849 25.07 16.6 61.9 46 5.1 41.2
01:15 1020 30.12 849 25.07 16.1 60.9 47 4.8 40.7
01:20 1020 30.12 849 25.07 15.9 60.7 47 4.7 40.5
01:25 1020 30.12 849 25.07 16 60.9 45 4.2 39.5
01:30 1020 30.12 849 25.07 16.2 61.2 45 4.3 39.8
01:35 1020 30.12 849 25.07 16.4 61.5 45 4.7 40.4
01:40 1020 30.12 849 25.07 16 60.8 47 4.8 40.7
01:45 1020 30.12 849 25.07 15.5 60 48 4.6 40.3
01:50 1020 30.12 849 25.07 15.6 60.1 46 4.1 39.5
01:55 1020 30.12 849 25.07 15.9 60.6 44 3.6 38.5
02:00 1020 30.12 849 25.07 16.4 61.5 41 3.4 38.1
02:05 1020 30.12 849 25.07 16.8 62.3 41 3.6 38.5
02:10 1020 30.12 849 25.07 16.6 61.9 43 4 39.3
02:15 1020 30.12 849 25.07 16.2 61.1 44 3.9 39.1
02:20 1020 30.12 849 25.07 16.1 61 44 3.9 38.9
02:25 1020 30.12 849 25.07 16.1 60.9 44 3.9 39.1
02:30 1020 30.12 849 25.07 16 60.7 44 3.8 38.9
02:35 1020 30.12 849 25.07 16 60.8 43 3.6 38.5
02:40 1020 30.12 849 25.07 16.3 61.3 43 3.7 38.6
02:45 1020 30.12 849 25.07 16.3 61.4 43 3.8 38.8
02:50 1020 30.12 849 25.07 16.4 61.4 43 3.7 38.7
02:55 1020 30.12 849 25.07 16.3 61.4 43 3.8 38.8
03:00 1020 30.12 849 25.07 16.4 61.6 41 3.3 38
03:05 1020 30.12 849 25.07 16.8 62.2 41 3.7 38.6
03:10 1020 30.12 849 25.07 16.6 61.8 41 3.5 38.4
03:15 1020 30.12 849 25.07 16.6 61.8 42 3.6 38.4
03:20 1020 30.12 849 25.07 16.4 61.5 42 3.6 38.5
03:25 1020 30.12 849 25.07 16.2 61.1 43 3.6 38.5
03:30 1020 30.12 849 25.07 16.1 61 43 3.7 38.6
03:35 1020 30.12 849 25.07 16 60.8 43 3.4 38.1
03:40 1020 30.12 849 25.07 16.2 61.1 42 3.5 38.3
03:45 1020 30.12 849 25.07 16.4 61.4 41 3.2 37.8
03:50 1020 30.12 849 25.07 16.8 62.3 41 3.5 38.4
03:55 1020 30.12 849 25.07 16.7 62 41 3.4 38
04:00 1020 30.12 849 25.07 16.6 61.9 42 3.7 38.7
04:05 1020 30.12 849 25.07 16.5 61.7 42 3.6 38.5
04:10 1020 30.12 849 25.07 16.5 61.6 43 3.9 38.9
04:15 1020 30.12 849 25.07 16.2 61.1 43 3.7 38.7
04:20 1020 30.12 849 25.07 16.2 61.2 43 3.6 38.6
04:25 1020 30.12 849 25.07 16.5 61.6 41 3.4 38.1
04:30 1020 30.12 849 25.07 16.3 61.4 43 3.8 38.9
04:35 1020 30.12 849 25.07 15.8 60.4 45 3.9 39.1
04:40 1020 30.12 849 25.07 15.7 60.2 45 3.9 38.9
04:45 1020 30.12 849 25.07 15.7 60.2 45 3.9 39.1
04:50 1020 30.12 849 25.07 15.2 59.3 47 3.9 39.1
04:55 1020 30.12 849 25.07 15.5 59.9 44 3.4 38.1
05:00 1020 30.12 849 25.07 15.5 59.9 46 3.9 39
05:05 1020 30.12 849 25.07 15.1 59.2 47 3.9 39.1
05:10 1020 30.12 849 25.07 14.9 58.9 48 4.1 39.4
05:15 1020 30.12 849 25.07 14.7 58.5 48 4 39.2
05:20 1020 30.12 849 25.07 14.7 58.5 49 4.1 39.4
05:25 1020 30.12 849 25.07 14.4 58 50 4.2 39.5
05:30 1020 30.12 850 25.1 14.3 57.7 50 4 39.2
05:35 1020 30.12 850 25.1 14.5 58.1 48 3.8 38.9
05:40 1020 30.12 850 25.1 14.8 58.6 48 4 39.2
05:45 1020 30.12 850 25.1 15 59 47 4 39.2
05:50 1020 30.12 850 25.1 15.1 59.1 48 4.1 39.4
05:55 1020 30.12 850 25.1 15.3 59.5 47 4 39.2
06:00 1020 30.12 850 25.1 15.3 59.6 47 4.3 39.7
06:05 1020 30.12 850 25.1 14.9 58.9 49 4.3 39.8
06:10 1021 30.15 850 25.1 14.6 58.2 50 4.2 39.6
06:15 1021 30.15 850 25.1 14.5 58.1 49 4.1 39.5
06:20 1021 30.15 850 25.1 14.8 58.6 48 4.1 39.3
06:25 1021 30.15 850 25.1 15.3 59.6 46 3.8 38.8
06:30 1021 30.15 850 25.1 15.9 60.7 44 3.9 39
06:35 1021 30.15 850 25.1 16 60.9 45 4.1 39.4
06:40 1021 30.15 850 25.1 16 60.8 46 4.5 40.1
06:45 1021 30.15 850 25.1 15.8 60.4 46 4.3 39.7
06:50 1021 30.15 850 25.1 15.9 60.5 46 4.5 40.1
06:55 1021 30.15 850 25.1 16 60.7 47 4.6 40.3
07:00 1021 30.15 850 25.1 16 60.8 47 4.8 40.7
07:05 1021 30.15 850 25.1 15.8 60.5 48 4.8 40.7
07:10 1021 30.15 850 25.1 16 60.8 47 4.8 40.6
07:15 1021 30.15 850 25.1 16.4 61.5 46 4.8 40.7
07:20 1021 30.15 850 25.1 16.5 61.7 45 4.6 40.3
07:25 1021 30.15 850 25.1 17 62.6 44 4.9 40.9
07:30 1021 30.15 850 25.1 17.4 63.4 44 5.2 41.3
07:35 1021 30.15 850 25.1 17.8 64.1 42 5 41.1
07:40 1021 30.15 850 25.1 17.9 64.3 43 5.3 41.5
07:45 1021 30.15 850 25.1 18.3 64.9 42 5.2 41.3
07:50 1021 30.15 850 25.1 18.5 65.2 41 5.2 41.3
07:55 1021 30.15 850 25.1 18.7 65.7 39 4.7 40.5
08:00 1021 30.15 850 25.1 19 66.2 40 5.3 41.6
08:05 1021 30.15 850 25.1 19.4 66.8 39 5.1 41.1
08:10 1021 30.15 850 25.1 19.6 67.2 38 5.1 41.2
08:15 1021 30.15 850 25.1 19.9 67.8 38 5.4 41.7
08:20 1021 30.15 850 25.1 20.4 68.7 37 5.4 41.8
08:25 1021 30.15 850 25.1 20.8 69.4 37 5.6 42.1
08:30 1021 30.15 850 25.1 21.2 70.2 38 6.4 43.5
08:35 1021 30.15 850 25.1 21 69.7 38 6.2 43.2
08:40 1021 30.15 850 25.1 20.8 69.4 37 5.9 42.6
08:45 1021 30.15 850 25.1 21.2 70.2 35 5.5 41.9
08:50 1021 30.15 850 25.1 22 71.6 34 5.4 41.7
08:55 1021 30.15 850 25.1 22.3 72.1 34 6 42.7
09:00 1021 30.15 850 25.1 22.6 72.7 34 6 42.8
09:05 1021 30.15 850 25.1 22.9 73.2 31 5.1 41.2
09:10 1021 30.15 850 25.1 23.9 75 30 5.3 41.5
09:15 1021 30.15 850 25.1 23.6 74.5 30 5.4 41.8
09:20 1021 30.15 850 25.1 23.8 74.9 29 5.1 41.1
09:25 1021 30.15 850 25.1 24.3 75.8 30 5.7 42.2
09:30 1021 30.15 850 25.1 24 75.1 30 5.7 42.3
09:35 1021 30.15 850 25.1 24.3 75.7 30 5.8 42.4
09:40 1021 30.15 850 25.1 24.4 75.9 28 5.1 41.2
09:45 1021 30.15 850 25.1 24.4 75.8 28 5.1 41.2
09:50 1021 30.15 850 25.1 25.1 77.1 28 5.3 41.5
09:55 1021 30.15 850 25.1 25.9 78.5 27 5.6 42.1
10:00 1021 30.15 850 25.1 26.3 79.3 26 5.5 41.9
10:05 1021 30.15 850 25.1 25.7 78.3 28 6 42.8
10:10 1021 30.15 850 25.1 25.1 77.1 26 4.7 40.5
10:15 1021 30.15 850 25.1 25.6 78 27 5.2 41.4
10:20 1021 30.15 850 25.1 25.9 78.6 25 4.7 40.5
10:25 1021 30.15 850 25.1 26.4 79.5 25 5.1 41.2
10:30 1021 30.15 850 25.1 26.7 80.1 25 5.3 41.5
10:35 1021 30.15 850 25.1 27 80.6 24 5.2 41.3
10:40 1020 30.12 850 25.1 27.2 80.9 24 5.3 41.5
10:45 1020 30.12 850 25.1 26.3 79.3 25 5.1 41.3
10:50 1020 30.12 850 25.1 26.9 80.4 23 4.2 39.5
10:55 1020 30.12 850 25.1 27.2 80.9 25 5.5 41.9
11:00 1020 30.12 850 25.1 26.7 80 25 5.1 41.2
11:05 1020 30.12 850 25.1 26.8 80.2 23 4 39.2
11:10 1020 30.12 850 25.1 27.7 81.9 22 4.7 40.5
11:15 1020 30.12 849 25.07 26.9 80.5 23 4.6 40.3
11:20 1020 30.12 849 25.07 26.8 80.2 24 4.7 40.4
11:25 1020 30.12 849 25.07 26.9 80.4 23 4.6 40.2
11:30 1020 30.12 849 25.07 26.9 80.4 23 4.1 39.4
11:35 1020 30.12 849 25.07 27.3 81.2 23 4.7 40.5
11:40 1020 30.12 849 25.07 27.4 81.2 22 4.3 39.7
11:45 1020 30.12 849 25.07 27.7 81.9 22 4.6 40.3
11:50 1020 30.12 849 25.07 28.3 82.9 21 4.5 40.1
11:55 1020 30.12 849 25.07 28.1 82.7 23 5.5 41.9
12:00 1020 30.12 849 25.07 28 82.4 21 4 39.2
12:05 1020 30.12 849 25.07 28.7 83.7 20 3.8 38.8
12:10 1020 30.12 849 25.07 28.9 84 21 4.6 40.4
12:15 1020 30.12 849 25.07 28.4 83 21 4.6 40.2
12:20 1020 30.12 849 25.07 28.2 82.8 22 4.5 40.1
12:25 1020 30.12 849 25.07 28.1 82.6 21 3.8 38.8
12:30 1020 30.12 849 25.07 27.8 82 21 4.1 39.3
12:35 1020 30.12 849 25.07 27.9 82.2 21 4.2 39.5
12:40 1020 30.12 849 25.07 28.1 82.7 21 3.9 38.9
12:45 1020 30.12 849 25.07 28.3 82.9 20 3.7 38.7
12:50 1020 30.12 849 25.07 28.5 83.3 20 4 39.1
12:55 1019 30.09 849 25.07 29.4 85 19 3.8 38.9
13:00 1019 30.09 849 25.07 29.8 85.6 19 3.9 39
13:05 1019 30.09 849 25.07 29.2 84.6 20 3.9 39.1
13:10 1019 30.09 849 25.07 28.7 83.6 22 5.4 41.8
13:15 1019 30.09 849 25.07 28.7 83.6 22 4.9 40.9
13:20 1019 30.09 848 25.04 28.6 83.6 21 4.2 39.6
13:25 1019 30.09 848 25.04 27.8 82.1 22 4.3 39.7
13:30 1019 30.09 848 25.04 28.3 82.9 23 5.5 42
13:35 1019 30.09 848 25.04 27.9 82.2 24 5.8 42.5
13:40 1019 30.09 848 25.04 27.6 81.6 25 5.9 42.7
13:45 1019 30.09 848 25.04 27.2 80.9 26 6.5 43.7
13:50 1019 30.09 848 25.04 27.1 80.7 27 6.9 44.4
13:55 1019 30.09 848 25.04 26.7 80 31 8.3 47
14:00 1019 30.09 848 25.04 25.7 78.2 33 8.4 47.1
14:05 1019 30.09 848 25.04 25.3 77.5 32 7.8 46.1
14:10 1019 30.09 848 25.04 25.1 77.2 32 7.4 45.4
14:15 1019 30.09 848 25.04 24.8 76.6 31 6.7 44
14:20 1019 30.09 848 25.04 24.9 76.9 29 5.7 42.2
14:25 1019 30.09 848 25.04 24.9 76.9 32 7.6 45.6
14:30 1019 30.09 848 25.04 24.5 76 33 7.4 45.4
14:35 1019 30.09 848 25.04 24.2 75.5 34 7.4 45.2
14:40 1019 30.09 848 25.04 24.2 75.5 33 7.3 45.1
14:45 1019 30.09 848 25.04 24.4 75.8 32 6.9 44.4
14:50 1019 30.09 848 25.04 24.5 76.2 32 7.1 44.7
14:55 1019 30.09 848 25.04 24.8 76.6 31 7 44.6
15:00 1019 30.09 849 25.07 23.7 74.7 45 11.3 52.3
15:05 1019 30.09 849 25.07 23.1 73.6 43 9.9 49.7
15:10 1020 30.12 849 25.07 23.6 74.4 42 10.2 50.3
15:15 1020 30.12 849 25.07 23.6 74.6 39 8.9 48
15:20 1019 30.09 849 25.07 23.7 74.7 36 7.8 46.1
15:25 1020 30.12 849 25.07 24.6 76.3 33 7.5 45.5
15:30 1020 30.12 849 25.07 25.4 77.7 33 8 46.5
15:35 1020 30.12 849 25.07 25.7 78.2 30 7.2 45
15:40 1020 30.12 849 25.07 25.4 77.7 33 8.4 47.1
15:45 1020 30.12 849 25.07 23.6 74.4 39 9.1 48.4
15:50 1019 30.09 849 25.07 22.5 72.6 43 9.7 49.4
15:55 1019 30.09 849 25.07 21.7 71 46 9.8 49.6
16:00 1019 30.09 849 25.07 21.5 70.8 46 9.4 49
16:05 1019 30.09 849 25.07 21.8 71.3 47 10.1 50.3
16:10 1019 30.09 849 25.07 21.8 71.2 47 10 50.1
16:15 1019 30.09 849 25.07 21.7 71 47 9.9 49.8
16:20 1019 30.09 848 25.04 21.9 71.3 42 8.7 47.6
16:25 1019 30.09 848 25.04 22.3 72.1 41 8.5 47.4
16:30 1019 30.09 848 25.04 22.5 72.5 40 8.6 47.4
16:35 1019 30.09 848 25.04 22.6 72.8 41 9.1 48.3
16:40 1019 30.09 848 25.04 22.5 72.5 43 9.5 49.1
16:45 1019 30.09 848 25.04 22 71.6 49 11.1 51.9
16:50 1019 30.09 848 25.04 21.6 70.9 47 10 49.9
16:55 1019 30.09 848 25.04 21.6 70.9 46 9.7 49.4
17:00 1019 30.09 848 25.04 21.8 71.2 45 9.4 48.9
17:05 1019 30.09 848 25.04 21.9 71.4 44 9.4 48.9
17:10 1019 30.09 848 25.04 22 71.5 42 8.7 47.6
17:15 1019 30.09 848 25.04 22.2 71.9 42 8.7 47.7
17:20 1019 30.09 848 25.04 22.3 72.2 43 9.3 48.8
17:25 1019 30.09 848 25.04 21.9 71.4 52 11.7 53.1
17:30 1019 30.09 848 25.04 21.2 70.2 57 12.5 54.5
17:35 1019 30.09 848 25.04 20.9 69.6 54 11.5 52.6
17:40 1019 30.09 849 25.07 21.1 70 50 10.5 51
17:45 1019 30.09 849 25.07 21.4 70.4 55 12.1 53.8
17:50 1019 30.09 849 25.07 21 69.8 57 12.3 54.1
17:55 1019 30.09 849 25.07 21.1 69.9 53 11.4 52.5
18:00 1019 30.09 849 25.07 21.8 71.2 39 7.2 45
18:05 1019 30.09 848 25.04 23.4 74.1 32 6 42.9
18:10 1019 30.09 848 25.04 23.9 75 32 6.6 43.9
18:15 1019 30.09 848 25.04 23.8 74.9 33 6.7 44.1
18:20 1019 30.09 848 25.04 23.6 74.5 35 7.4 45.2
18:25 1019 30.09 848 25.04 23.2 73.7 35 7.3 45.1
18:30 1019 30.09 848 25.04 22.9 73.2 37 7.7 45.9
18:35 1019 30.09 848 25.04 22.7 72.9 35 6.8 44.3
18:40 1019 30.09 848 25.04 22.5 72.4 36 7 44.6
18:45 1019 30.09 848 25.04 22.2 72 38 7.2 45
18:50 1019 30.09 848 25.04 21.6 70.9 42 8.3 47
18:55 1019 30.09 848 25.04 21.1 70 41 7.7 45.8
19:00 1019 30.09 848 25.04 20.9 69.6 42 7.6 45.8
19:05 1019 30.09 848 25.04 21 69.8 41 7.5 45.5
19:10 1019 30.09 848 25.04 20.8 69.5 44 8.3 47
19:15 1019 30.09 848 25.04 20.5 68.9 45 8.2 46.8
19:20 1019 30.09 848 25.04 20.4 68.7 44 8 46.4
19:25 1019 30.09 848 25.04 20.6 69 43 7.7 45.9
19:30 1019 30.09 848 25.04 20.7 69.3 41 7.2 45
19:35 1019 30.09 848 25.04 21.2 70.2 40 7.4 45.2
19:40 1019 30.09 849 25.07 21 69.7 43 8 46.4
19:45 1019 30.09 849 25.07 20.7 69.2 44 8.2 46.7
19:50 1020 30.12 849 25.07 20.5 68.9 45 8.4 47.1
19:55 1020 30.12 849 25.07 20.4 68.8 45 8.2 46.8
20:00 1020 30.12 849 25.07 20.6 69 44 8.1 46.5
20:05 1020 30.12 849 25.07 20.6 69.1 44 8.2 46.7
20:10 1020 30.12 849 25.07 20.5 68.9 43 7.6 45.7
20:15 1020 30.12 849 25.07 20.7 69.2 41 7 44.6
20:20 1020 30.12 849 25.07 21 69.9 41 7.3 45.1
20:25 1020 30.12 849 25.07 21 69.8 41 7.3 45.1
20:30 1020 30.12 849 25.07 21 69.8 40 7.1 44.7
20:35 1020 30.12 849 25.07 21 69.8 41 7.4 45.3
20:40 1020 30.12 849 25.07 20.7 69.3 42 7.7 45.8
20:45 1020 30.12 849 25.07 20.5 68.9 44 7.9 46.2
20:50 1020 30.12 849 25.07 20.3 68.5 44 7.8 46
20:55 1020 30.12 849 25.07 20.2 68.4 44 7.7 45.8
21:00 1020 30.12 849 25.07 20.3 68.5 43 7.5 45.5
21:05 1020 30.12 849 25.07 20.1 68.1 45 7.8 46.1
21:10 1020 30.12 849 25.07 19.7 67.4 47 8.1 46.7
21:15 1020 30.12 849 25.07 19.2 66.6 49 8.4 47.1
21:20 1020 30.12 849 25.07 18.8 65.8 50 8.3 46.9
21:25 1020 30.12 849 25.07 18.6 65.5 50 8.2 46.8
21:30 1020 30.12 849 25.07 18.6 65.5 50 8 46.4
21:35 1020 30.12 850 25.1 18.8 65.9 49 8.1 46.6
21:40 1021 30.15 850 25.1 19.2 66.6 47 7.7 45.9
21:45 1021 30.15 850 25.1 19.4 67 46 7.7 45.8
21:50 1021 30.15 850 25.1 19.6 67.4 45 7.5 45.5
21:55 1021 30.15 850 25.1 19.8 67.7 44 7.4 45.3
22:00 1021 30.15 850 25.1 19.7 67.4 45 7.6 45.7
22:05 1021 30.15 850 25.1 19.2 66.6 47 7.8 46.1
22:10 1021 30.15 850 25.1 18.9 66 47 7.4 45.3
22:15 1021 30.15 850 25.1 19 66.2 46 7.3 45.1
22:20 1021 30.15 850 25.1 19 66.2 47 7.6 45.7
22:25 1021 30.15 850 25.1 18.9 66 46 7.1 44.8
22:30 1021 30.15 850 25.1 19.1 66.5 45 7.2 44.9
22:35 1021 30.15 850 25.1 19.3 66.7 46 7.4 45.3
22:40 1021 30.15 850 25.1 19.2 66.5 47 7.6 45.6
22:45 1021 30.15 850 25.1 19.1 66.3 47 7.7 45.9
22:50 1021 30.15 850 25.1 19 66.1 48 7.8 46.1
22:55 1021 30.15 851 25.13 19 66.1 48 7.7 45.9
23:00 1021 30.15 851 25.13 19.1 66.5 46 7.5 45.6
23:05 1021 30.15 851 25.13 19.4 66.9 46 7.6 45.7
23:10 1021 30.15 851 25.13 19.5 67.2 46 7.8 46
23:15 1022 30.18 851 25.13 19.5 67.1 47 7.9 46.2
23:20 1022 30.18 851 25.13 19.4 67 46 7.7 45.9
23:25 1021 30.15 851 25.13 19.4 66.9 46 7.6 45.7
23:30 1021 30.15 851 25.13 19.4 66.9 47 7.8 46.1
23:35 1021 30.15 851 25.13 19.4 66.8 47 7.8 46
23:40 1021 30.15 851 25.13 19.3 66.7 47 7.8 46.1
23:45 1021 30.15 851 25.13 19.2 66.5 47 7.8 46.1
23:50 1021 30.15 851 25.13 19.1 66.4 47 7.8 46
23:55 1021 30.15 850 25.1 19.1 66.3 47 7.8 46
24:00 1021 30.15 850 25.1 19.2 66.6 46 7.6 45.7